Time,TemperatureF,DewpointF,PressureIn,WindDirection,WindDirectionDegrees,WindSpeedMPH,WindSpeedGustMPH,Humidity,HourlyPrecipIn,Conditions,Clouds,dailyrainin,SoftwareType,DateUTC
2013-01-02 00:00:00,35.6,30.5,28.42,East,86,1.3,3.4,95,0.00,,,-99.99,HOBO +U30 +Weather +,2013-01-02 08:00:00,
2013-01-02 00:15:00,35.6,30.7,28.41,East,80,2.0,4.3,94,0.00,,,-99.99,HOBO +U30 +Weather +,2013-01-02 08:15:00,
2013-01-02 00:30:00,35.6,30.6,28.41,ENE,69,2.0,29.5,95,0.00,,,-99.99,HOBO +U30 +Weather +,2013-01-02 08:30:00,
2013-01-02 00:45:00,35.6,30.3,28.41,ENE,69,0.4,2.9,94,0.00,,,-99.99,HOBO +U30 +Weather +,2013-01-02 08:45:00,
2013-01-02 01:00:00,35.5,32.6,28.41,East,100,3.4,25.3,87,0.00,,,-99.99,HOBO +U30 +Weather +,2013-01-02 09:00:00,
2013-01-02 01:15:00,35.5,32.0,28.41,SE,129,4.3,10.3,87,0.00,,,-99.99,HOBO +U30 +Weather +,2013-01-02 09:15:00,
2013-01-02 01:30:00,35.4,32.0,28.40,ESE,102,4.3,9.6,88,0.00,,,-99.99,HOBO +U30 +Weather +,2013-01-02 09:30:00,
2013-01-02 01:45:00,35.4,31.4,28.40,East,90,4.3,18.6,89,0.00,,,-99.99,HOBO +U30 +Weather +,2013-01-02 09:45:00,
2013-01-02 02:00:00,35.4,30.5,28.40,ESE,105,1.6,6.7,89,0.00,,,-99.99,HOBO +U30 +Weather +,2013-01-02 10:00:00,
2013-01-02 02:15:00,35.4,30.2,28.40,NE,56,1.6,26.6,92,0.00,,,-99.99,HOBO +U30 +Weather +,2013-01-02 10:15:00,
2013-01-02 02:30:00,35.3,30.6,28.40,NE,35,2.5,12.5,91,0.00,,,-99.99,HOBO +U30 +Weather +,2013-01-02 10:30:00,
2013-01-02 02:45:00,35.3,31.1,28.40,ENE,59,2.5,18.3,89,0.00,,,-99.99,HOBO +U30 +Weather +,2013-01-02 10:45:00,
2013-01-02 03:00:00,35.3,31.2,28.39,ESE,102,3.4,7.8,85,0.00,,,-99.99,HOBO +U30 +Weather +,2013-01-02 11:00:00,
2013-01-02 03:15:00,35.2,31.1,28.38,East,100,4.9,9.6,86,0.00,,,-99.99,HOBO +U30 +Weather +,2013-01-02 11:15:00,
2013-01-02 03:30:00,35.2,31.2,28.38,East,88,4.5,29.1,85,0.00,,,-99.99,HOBO +U30 +Weather +,2013-01-02 11:30:00,
2013-01-02 03:45:00,35.2,30.6,28.38,East,87,4.3,23.7,86,0.00,,,-99.99,HOBO +U30 +Weather +,2013-01-02 11:45:00,
2013-01-02 04:00:00,35.2,30.6,28.38,East,79,3.8,28.6,85,0.00,,,-99.99,HOBO +U30 +Weather +,2013-01-02 12:00:00,
2013-01-02 04:15:00,35.2,30.4,28.37,East,88,3.4,15.4,86,0.00,,,-99.99,HOBO +U30 +Weather +,2013-01-02 12:15:00,
2013-01-02 04:30:00,35.2,30.2,28.36,East,95,2.9,7.2,86,0.00,,,-99.99,HOBO +U30 +Weather +,2013-01-02 12:30:00,
2013-01-02 04:45:00,35.1,30.1,28.36,East,80,3.8,29.1,84,0.00,,,-99.99,HOBO +U30 +Weather +,2013-01-02 12:45:00,
2013-01-02 05:00:00,35.1,30.5,28.37,East,80,4.3,27.1,83,0.00,,,-99.99,HOBO +U30 +Weather +,2013-01-02 13:00:00,
2013-01-02 05:15:00,35.1,30.4,28.36,East,87,3.8,26.6,82,0.00,,,-99.99,HOBO +U30 +Weather +,2013-01-02 13:15:00,
2013-01-02 05:30:00,35.1,29.9,28.36,ESE,105,3.8,23.3,83,0.00,,,-99.99,HOBO +U30 +Weather +,2013-01-02 13:30:00,
2013-01-02 05:45:00,35.0,29.0,28.36,SSE,156,2.5,6.7,85,0.00,,,-99.99,HOBO +U30 +Weather +,2013-01-02 13:45:00,
2013-01-02 06:00:00,35.0,29.6,28.36,SE,135,2.5,25.7,82,0.00,,,-99.99,HOBO +U30 +Weather +,2013-01-02 14:00:00,
2013-01-02 06:15:00,35.0,28.8,28.36,ESE,122,2.0,5.8,85,0.00,,,-99.99,HOBO +U30 +Weather +,2013-01-02 14:15:00,
2013-01-02 06:30:00,35.0,29.0,28.36,NNE,13,2.0,7.2,86,0.00,,,-99.99,HOBO +U30 +Weather +,2013-01-02 14:30:00,
2013-01-02 06:45:00,34.9,29.6,28.36,SSE,154,2.5,13.6,83,0.00,,,-99.99,HOBO +U30 +Weather +,2013-01-02 14:45:00,
2013-01-02 07:00:00,34.9,29.5,28.36,East,88,3.4,8.7,82,0.00,,,-99.99,HOBO +U30 +Weather +,2013-01-02 15:00:00,
2013-01-02 07:15:00,34.9,29.1,28.36,East,80,3.8,7.4,84,0.00,,,-99.99,HOBO +U30 +Weather +,2013-01-02 15:15:00,
2013-01-02 07:30:00,34.9,29.2,28.36,East,88,3.4,17.9,84,0.00,,,-99.99,HOBO +U30 +Weather +,2013-01-02 15:30:00,
2013-01-02 07:45:00,34.8,28.9,28.36,East,83,2.5,20.8,83,0.00,,,-99.99,HOBO +U30 +Weather +,2013-01-02 15:45:00,
2013-01-02 08:00:00,34.8,28.5,28.36,NE,46,0.9,2.9,88,0.00,,,-99.99,HOBO +U30 +Weather +,2013-01-02 16:00:00,
2013-01-02 08:15:00,34.8,28.0,28.36,WSW,241,1.6,24.2,86,0.00,,,-99.99,HOBO +U30 +Weather +,2013-01-02 16:15:00,
2013-01-02 08:30:00,34.8,28.1,28.36,ESE,118,1.6,6.7,88,0.00,,,-99.99,HOBO +U30 +Weather +,2013-01-02 16:30:00,
2013-01-02 08:45:00,34.7,29.3,28.37,SSE,153,2.0,26.6,83,0.00,,,-99.99,HOBO +U30 +Weather +,2013-01-02 16:45:00,
2013-01-02 09:00:00,34.7,31.0,28.37,East,101,4.5,10.3,76,0.00,,,-99.99,HOBO +U30 +Weather +,2013-01-02 17:00:00,
2013-01-02 09:15:00,34.7,30.7,28.36,East,101,6.3,30.6,74,0.00,,,-99.99,HOBO +U30 +Weather +,2013-01-02 17:15:00,
2013-01-02 09:30:00,34.7,30.9,28.36,East,98,5.4,33.6,74,0.00,,,-99.99,HOBO +U30 +Weather +,2013-01-02 17:30:00,
2013-01-02 09:45:00,34.6,31.3,28.36,East,93,4.3,30.2,74,0.00,,,-99.99,HOBO +U30 +Weather +,2013-01-02 17:45:00,
2013-01-02 10:00:00,34.7,31.6,28.36,East,94,3.4,29.1,72,0.00,,,-99.99,HOBO +U30 +Weather +,2013-01-02 18:00:00,
2013-01-02 10:15:00,34.6,31.6,28.36,ESE,102,3.4,5.8,68,0.00,,,-99.99,HOBO +U30 +Weather +,2013-01-02 18:15:00,
2013-01-02 10:30:00,34.6,31.8,28.36,ESE,105,2.5,6.7,64,0.00,,,-99.99,HOBO +U30 +Weather +,2013-01-02 18:30:00,
2013-01-02 10:45:00,34.6,32.0,28.36,East,97,3.4,7.8,63,0.00,,,-99.99,HOBO +U30 +Weather +,2013-01-02 18:45:00,
2013-01-02 11:00:00,34.6,32.0,28.35,ESE,102,3.8,8.3,58,0.00,,,-99.99,HOBO +U30 +Weather +,2013-01-02 19:00:00,
2013-01-02 11:15:00,34.6,31.8,28.35,ESE,108,4.5,11.6,56,0.00,,,-99.99,HOBO +U30 +Weather +,2013-01-02 19:15:00,
2013-01-02 11:30:00,34.7,32.1,28.35,ESE,104,4.5,9.6,54,0.00,,,-99.99,HOBO +U30 +Weather +,2013-01-02 19:30:00,
2013-01-02 11:45:00,34.7,31.4,28.34,East,101,5.8,16.6,50,0.00,,,-99.99,HOBO +U30 +Weather +,2013-01-02 19:45:00,
2013-01-02 12:00:00,34.8,30.2,28.34,SE,125,7.4,13.0,47,0.00,,,-99.99,HOBO +U30 +Weather +,2013-01-02 20:00:00,
2013-01-02 12:15:00,34.8,30.9,28.33,SE,131,6.3,27.3,47,0.00,,,-99.99,HOBO +U30 +Weather +,2013-01-02 20:15:00,
2013-01-02 12:30:00,35.0,30.6,28.33,SSE,147,5.8,32.0,46,0.00,,,-99.99,HOBO +U30 +Weather +,2013-01-02 20:30:00,
2013-01-02 12:45:00,35.1,29.9,28.33,SE,138,6.3,12.5,43,0.00,,,-99.99,HOBO +U30 +Weather +,2013-01-02 20:45:00,
2013-01-02 13:00:00,35.2,31.1,28.32,SSE,149,5.8,13.6,46,0.00,,,-99.99,HOBO +U30 +Weather +,2013-01-02 21:00:00,
2013-01-02 13:15:00,35.4,29.6,28.32,SE,145,4.9,10.3,44,0.00,,,-99.99,HOBO +U30 +Weather +,2013-01-02 21:15:00,
2013-01-02 13:30:00,35.7,30.5,28.32,SE,142,4.9,32.0,44,0.00,,,-99.99,HOBO +U30 +Weather +,2013-01-02 21:30:00,
2013-01-02 13:45:00,35.9,31.4,28.31,SE,139,5.4,13.2,47,0.00,,,-99.99,HOBO +U30 +Weather +,2013-01-02 21:45:00,
2013-01-02 14:00:00,36.1,31.5,28.31,SE,145,5.4,9.6,48,0.00,,,-99.99,HOBO +U30 +Weather +,2013-01-02 22:00:00,
2013-01-02 14:15:00,36.4,31.4,28.31,SE,132,5.4,32.4,48,0.00,,,-99.99,HOBO +U30 +Weather +,2013-01-02 22:15:00,
2013-01-02 14:30:00,36.6,30.9,28.31,SE,138,4.9,8.7,48,0.00,,,-99.99,HOBO +U30 +Weather +,2013-01-02 22:30:00,
2013-01-02 14:45:00,36.8,31.6,28.31,SE,138,4.3,7.8,49,0.00,,,-99.99,HOBO +U30 +Weather +,2013-01-02 22:45:00,
2013-01-02 15:00:00,37.0,31.4,28.31,ESE,119,4.9,10.3,51,0.00,,,-99.99,HOBO +U30 +Weather +,2013-01-02 23:00:00,
2013-01-02 15:15:00,37.2,31.7,28.31,SE,126,5.8,28.6,55,0.00,,,-99.99,HOBO +U30 +Weather +,2013-01-02 23:15:00,
2013-01-02 15:30:00,37.4,31.5,28.31,ESE,122,6.3,30.0,56,0.00,,,-99.99,HOBO +U30 +Weather +,2013-01-02 23:30:00,
2013-01-02 15:45:00,37.6,32.2,28.31,ESE,104,4.5,7.8,59,0.00,,,-99.99,HOBO +U30 +Weather +,2013-01-02 23:45:00,
2013-01-02 16:00:00,37.7,32.1,28.31,ESE,104,3.8,27.3,64,0.00,,,-99.99,HOBO +U30 +Weather +,2013-01-03 00:00:00,
2013-01-02 16:15:00,37.9,31.9,28.31,East,98,2.9,27.3,68,0.00,,,-99.99,HOBO +U30 +Weather +,2013-01-03 00:15:00,
2013-01-02 16:30:00,38.0,32.1,28.31,East,87,3.8,28.2,69,0.00,,,-99.99,HOBO +U30 +Weather +,2013-01-03 00:30:00,
2013-01-02 16:45:00,38.1,31.7,28.31,ESE,110,4.3,15.9,74,0.00,,,-99.99,HOBO +U30 +Weather +,2013-01-03 00:45:00,
2013-01-02 17:00:00,38.2,31.5,28.32,East,79,2.5,26.6,75,0.00,,,-99.99,HOBO +U30 +Weather +,2013-01-03 01:00:00,
2013-01-02 17:15:00,38.2,31.5,28.31,East,86,3.4,18.3,75,0.00,,,-99.99,HOBO +U30 +Weather +,2013-01-03 01:15:00,
2013-01-02 17:30:00,38.2,31.2,28.30,East,88,3.4,7.2,76,0.00,,,-99.99,HOBO +U30 +Weather +,2013-01-03 01:30:00,
2013-01-02 17:45:00,38.2,30.9,28.30,East,80,2.9,11.2,79,0.00,,,-99.99,HOBO +U30 +Weather +,2013-01-03 01:45:00,
2013-01-02 18:00:00,38.2,30.6,28.30,ENE,63,2.5,26.2,80,0.00,,,-99.99,HOBO +U30 +Weather +,2013-01-03 02:00:00,
2013-01-02 18:15:00,38.2,30.5,28.30,ENE,58,2.5,26.6,79,0.00,,,-99.99,HOBO +U30 +Weather +,2013-01-03 02:15:00,
2013-01-02 18:30:00,38.2,30.1,28.31,NE,56,2.5,4.9,80,0.00,,,-99.99,HOBO +U30 +Weather +,2013-01-03 02:30:00,
2013-01-02 18:45:00,38.1,30.3,28.30,NE,52,2.9,25.7,77,0.00,,,-99.99,HOBO +U30 +Weather +,2013-01-03 02:45:00,
2013-01-02 19:45:00,37.9,29.5,28.29,ENE,69,2.5,25.3,78,0.00,,,-99.99,HOBO +U30 +Weather +,2013-01-03 03:45:00,
2013-01-02 20:00:00,37.8,28.9,28.29,NE,44,1.6,24.2,81,0.00,,,-99.99,HOBO +U30 +Weather +,2013-01-03 04:00:00,
2013-01-02 20:15:00,37.8,29.2,28.28,NE,56,2.5,25.7,79,0.00,,,-99.99,HOBO +U30 +Weather +,2013-01-03 04:15:00,
2013-01-02 20:30:00,37.7,28.9,28.28,East,94,2.9,8.3,82,0.00,,,-99.99,HOBO +U30 +Weather +,2013-01-03 04:30:00,
2013-01-02 20:45:00,37.7,29.6,28.28,East,86,2.9,27.7,77,0.00,,,-99.99,HOBO +U30 +Weather +,2013-01-03 04:45:00,
2013-01-02 21:00:00,37.6,28.9,28.28,ENE,76,2.9,25.7,81,0.00,,,-99.99,HOBO +U30 +Weather +,2013-01-03 05:00:00,
2013-01-02 21:15:00,37.5,29.5,28.28,ENE,70,3.4,9.2,79,0.00,,,-99.99,HOBO +U30 +Weather +,2013-01-03 05:15:00,
2013-01-02 21:30:00,37.5,29.3,28.28,ENE,73,3.8,27.1,77,0.00,,,-99.99,HOBO +U30 +Weather +,2013-01-03 05:30:00,
2013-01-02 21:45:00,37.4,28.8,28.27,ENE,76,2.9,24.4,75,0.00,,,-99.99,HOBO +U30 +Weather +,2013-01-03 05:45:00,
2013-01-02 22:00:00,37.3,28.8,28.27,NE,44,2.0,24.2,77,0.00,,,-99.99,HOBO +U30 +Weather +,2013-01-03 06:00:00,
2013-01-02 22:15:00,37.3,28.4,28.27,East,80,2.9,25.7,76,0.00,,,-99.99,HOBO +U30 +Weather +,2013-01-03 06:15:00,
2013-01-02 22:30:00,37.2,28.6,28.28,East,81,2.9,5.4,79,0.00,,,-99.99,HOBO +U30 +Weather +,2013-01-03 06:30:00,
2013-01-02 22:45:00,37.1,28.9,28.27,ENE,73,3.4,26.2,78,0.00,,,-99.99,HOBO +U30 +Weather +,2013-01-03 06:45:00,
2013-01-02 23:00:00,37.0,28.3,28.26,East,79,2.9,27.3,79,0.00,,,-99.99,HOBO +U30 +Weather +,2013-01-03 07:00:00,
2013-01-02 23:15:00,37.0,28.0,28.26,ENE,58,2.9,26.6,77,0.00,,,-99.99,HOBO +U30 +Weather +,2013-01-03 07:15:00,
2013-01-02 23:30:00,36.9,27.6,28.26,NE,38,2.5,5.4,74,0.00,,,-99.99,HOBO +U30 +Weather +,2013-01-03 07:30:00,
2013-01-02 23:45:00,36.9,27.4,28.25,ENE,67,2.5,27.1,67,0.00,,,-99.99,HOBO +U30 +Weather +,2013-01-03 07:45:00,